Regional Weather Roundup
Issued by NWS Kansas City/Pleasant Hill, MO

Home | Current Version | Previous Version | Graphics & Text | Print | Product List | Glossary Off
Versions: 1 2 3 4 5 6 7 8 9 10 11 12 13 14 15 16 17 18 19 20 21 22 23 24 25 26 27 28 29 30 31 32 33 34 35 36 37 38 39 40 41 42 43 44 45 46 47 48 49 50

000
ASUS43 KEAX 181310
RWREAX

WEATHER ROUNDUP FOR EASTERN KANSAS AND NORTHWEST MISSOURI
NATIONAL WEATHER SERVICE KANSAS CITY/PLEASANT HILL MO
700 AM CST WED JAN 18 2017

KSZ040-057-103>105-MOZ028-029-037-043-181400-
...KANSAS CITY METROPOLITAN AREA...

CITY           SKY/WX    TMP DP  RH WIND       PRES   REMARKS
K.C. INTL      CLOUDY    26  24  92 S9        30.13S FOG     WCI  17
K.C. DOWNTOWN  FOG       30  29  96 CALM      30.15S VSB 1/4
LEES SUMMIT    FOG       31  31 100 S5        30.15S VSB 1/2 WCI  26
OLATHE - IXD   FOG       27  26  96 S8        30.15R VSB 1/2 WCI  19
OLATHE - OJC   FOG       28  28 100 S5        30.14S VSB 1/4 WCI  23
LAWRENCE       CLOUDY    24  23  96 NE5       30.13F FOG     WCI  18

$$

MOZ001>008-011>017-020>025-030>033-038>040-044>046-053-054-181400-
...NORTHERN AND CENTRAL MISSOURI...

CITY           SKY/WX    TMP DP  RH WIND       PRES   REMARKS
ST. JOSEPH     FOG       27  26  96 CALM      30.15R VSB 1/4
MOSBY          FOG       30  30 100 CALM      30.16S VSB 1/4
WARRENSBURG    CLOUDY    36  34  93 S6        30.18R FOG     WCI  31
WHITEMAN AFB   CLOUDY    36  36 100 SW7       30.17R FOG     WCI  30
CLINTON        CLOUDY    37  37 100 S6        30.20R FOG     WCI  33
SEDALIA        CLOUDY    37  36  96 SW7       30.19S WCI  32
WARSAW         NOT AVBL
CHILLICOTHE      N/A     32  32 100 S5        30.17R WCI  27
KIRKSVILLE     CLOUDY    33  33 100 SW10      30.16R FOG     WCI  25

$$

MOZ041-047>049-056>058-063>065-088>090-097-181400-
...EASTERN AND SOUTHERN MISSOURI...

CITY           SKY/WX    TMP DP  RH WIND       PRES   REMARKS
ST. LOUIS INTL CLOUDY    37  30  75 NW6       30.21S WCI  32
SPIRIT OF STL  CLOUDY    36  33  89 SW3       30.21S
COLUMBIA       CLOUDY    36  33  89 S7        30.20R WCI  30
JEFFERSON CITY CLOUDY    36  31  82 SW3       30.23R
ROLLA          CLOUDY    34  32  92 SW3       30.19R
OSAGE BEACH    CLOUDY    37  34  89 S3        30.22R
SPRINGFIELD    FOG       36  35  96 E7        30.19R VSB 1/2 WCI  30
BRANSON        FOG       36  36 100 CALM      30.21R VSB 1/8
JOPLIN         FOG       34  34 100 VRB5      30.20R VSB 1/4 WCI  30
WEST PLAINS    CLOUDY    35  35 100 N5        30.21R FOG     WCI  31

$$

IAZ060-094-KSZ022-034>040-054-083-096-NEZ052-066-093-181400-
...KANSAS...SOUTHEAST NEBRASKA AND IOWA...

CITY           SKY/WX    TMP DP  RH WIND       PRES   REMARKS
TOPEKA         CLOUDY    26  22  84 E3        30.12F
MANHATTAN      CLOUDY    23  21  92 CALM      30.10S
EMPORIA        CLEAR     28  26  92 S9        30.12R WCI  19
CHANUTE        FOG       32  31  96 SE7       30.16S VSB 1/4 WCI  26
WICHITA        PTCLDY    36  31  82 CALM      30.09F
OMAHA          CLEAR     26  22  84 SE12      30.04F WCI  16
LINCOLN        CLOUDY    28  25  88 S7        30.05S WCI  21
FALLS CITY     CLOUDY    24  22  91 SE6       30.10R WCI  17
LAMONI         FOG       28  27  96 S7        30.10R VSB 1/4 WCI  21
DES MOINES     FOG       31  30  96 S6        30.08F VSB 1/2 WCI  25

$$




USA.gov is the U.S. government's official web portal to all federal, state and local government web resources and services.